[[{"header":{"parameterUnit":"m.s-1","parameterCategory":1,"la1":30.2991,"la2":30.254,"lo1":-89.0895,"lo2":-89.0444,"dy":0.0017,"dx":0.0017,"nx":28,"ny":28,"refTime":"2024-03-16T03:00:00:Z","depth":0,"parameterNumber":2,"parameterNumberName":"U-component_of_WINDS"},"data":[0,0,0,0,0,0,0,0,0,0,0,0,0,0,0,0,0,0,0,0,0,0,0,0,0,0,0,0,0,0,0,0,0,0,0,0,0,0,0,0,0,0,0,0,0,0,0,0,0,0,0,0,0,0,0,0,0,0,0.8492,0.8493,0,0.8602,0.8603,0.8605,0.8604,0.8603,0.8601,0.86,0.8714,0.8719,0.8723,0,0,0,0,0,0,0,0,0,0,0,0,0,0.8283,0.8287,0.8492,0.8493,0.8494,0.8602,0.8603,0.8605,0.8604,0.8603,0.8601,0.8599,0.8713,0.8718,0.8723,0,0,0,0,0,0,0,0,0,0,0,0,0,0.8382,0.8288,0.8491,0.8507,0.851,0.8602,0.8603,0.8605,0.8605,0.8603,0.86,0.8598,0.8711,0.8717,0.8724,0.8808,0,0,0.8744,0.8747,0,0,0,0,0,0,0,0,0.8376,0.8389,0.8503,0.8506,0.8509,0.8587,0.8572,0.8673,0.8605,0.8569,0.86,0.8597,0.8674,0.8683,0.8709,0.8813,0.8818,0.8745,0.8749,0.8752,0.8753,0,0,0,0,0,0,0,0.8369,0.8385,0.8535,0.8505,0.8509,0.851,0.8521,0.8591,0.8632,0.8572,0.8572,0.8585,0.8675,0.8702,0.8711,0.882,0.8745,0.875,0.8754,0.8757,0.9002,0.9004,0,0,0,0,0,0,0.8359,0.8379,0.8532,0.8539,0.8436,0.8515,0.8528,0.8564,0.8631,0.8639,0.8587,0.8585,0.8692,0.8704,0.8716,0.882,0.8751,0.8758,0.8761,0.8999,0.9002,0.9005,0,0,0,0,0,0,0.8354,0.8373,0.8527,0.8459,0.8479,0.8521,0.8562,0.8568,0.8595,0.8643,0.865,0.8607,0.8691,0.8706,0.8786,0.8824,0.8761,0.8767,0.8996,0.9,0.9004,0.9028,0,0,0,0,0,0,0.8348,0.8371,0.8402,0.846,0.8482,0.8595,0.8564,0.8571,0.8606,0.8605,0.8664,0.8672,0.869,0.8776,0.8792,0.8832,0.8772,0.8993,0.8998,0.9002,0.9024,0.9033,0.904,0,0,0,0,0,0.8341,0.8405,0.8404,0.8423,0.8523,0.8597,0.861,0.863,0.8609,0.8642,0.8673,0.867,0.8817,0.8784,0.8802,0.8844,0.8991,0.8996,0.9002,0.9021,0.9031,0.9039,0,0,0,0,0,0,0.8351,0.8412,0.8412,0.8496,0.8542,0.8597,0.8638,0.864,0.8692,0.8688,0.8711,0.8725,0.8804,0.8832,0.8794,0.8931,0.8901,0.8911,0.8909,0.8919,0.8927,0.8919,0.8777,0,0,0,0,0,0.8363,0.8418,0.8469,0.8538,0.8561,0.8596,0.8629,0.8641,0.8688,0.8707,0.8744,0.8791,0.8848,0.8885,0.894,0.9028,0.9042,0.9067,0.9074,0.908,0.9089,0.914,0.9152,0.9024,0.9024,0.9024,0,0,0.8388,0.8429,0.8462,0.8541,0.8577,0.8634,0.8612,0.8672,0.8715,0.8717,0.8794,0.8823,0.8877,0.8962,0.9001,0.8987,0.9127,0.9088,0.9092,0.9097,0.9147,0.9159,0.917,0.9028,0.9027,0.9026,0,0,0.8464,0.8499,0.8562,0.8599,0.8654,0.8678,0.8693,0.8748,0.8768,0.8845,0.8848,0.89,0.8997,0.9037,0.9069,0.9162,0.9162,0.9179,0.9219,0.9269,0.9279,0.9288,0.9323,0.9334,0.9187,0.9187,0.9187,0,0.8489,0.8574,0.8594,0.8656,0.8691,0.8695,0.876,0.8795,0.8866,0.8891,0.8875,0.8998,0.9035,0.913,0.9153,0.9178,0.9198,0.9173,0.9276,0.9285,0.9294,0.9327,0.934,0.9189,0.9189,0.9189,0.9189,0,0.8602,0.8662,0.8706,0.8774,0.8815,0.8877,0.8908,0.8947,0.8956,0.8981,0.9062,0.9106,0.9171,0.9194,0.9203,0.9291,0.9282,0.927,0.9242,0.9307,0.9339,0.9352,0.9192,0.9191,0.9191,0.919,0,0,0.8686,0.8766,0.8782,0.8814,0.8877,0.8923,0.8987,0.9051,0.9084,0.9133,0.9189,0.9272,0.9262,0.93,0.9313,0.9356,0.9429,0.934,0.9342,0.9356,0.9531,0.954,0.9554,0.9429,0.9432,0.9434,0.9527,0,0.877,0.8882,0.8903,0.9002,0.9058,0.9064,0.912,0.9165,0.9191,0.9243,0.9272,0.9331,0.9313,0.9336,0.9379,0.9411,0.9465,0.9405,0.9482,0.9485,0.9469,0.9571,0.958,0.9666,0.954,0.9542,0.9543,0,0.8881,0.8934,0.9038,0.9095,0.9119,0.9169,0.923,0.9279,0.9331,0.9347,0.939,0.9399,0.9467,0.9435,0.953,0.9489,0.9522,0.9543,0.9547,0.9555,0.9518,0.9583,0.9694,0.9707,0.9563,0.9561,0.956,0,0.8934,0.9031,0.9106,0.9133,0.9201,0.9236,0.9266,0.9316,0.9353,0.9407,0.9432,0.9493,0.9526,0.9574,0.96,0.9574,0.9694,0.9663,0.971,0.971,0.9736,0.9734,0.9854,0.9755,0.9755,0.9755,0.9755,0,0.9025,0.9089,0.9131,0.9177,0.925,0.9274,0.9346,0.9375,0.942,0.9473,0.9482,0.9532,0.9563,0.9618,0.9639,0.9715,0.973,0.9746,0.9751,0.9746,0.9744,0.9768,0.9764,0.9758,0.9758,0.9757,0.9756,0,0.9096,0.9126,0.9209,0.9267,0.9283,0.9334,0.9384,0.9431,0.9457,0.9525,0.9542,0.9584,0.9649,0.968,0.9761,0.9775,0.9863,0.9863,0.9845,0.9847,0.9893,0.9889,1.0034,1.0055,0.9941,0.9942,0.9943,0,0.9152,0.9202,0.9265,0.9302,0.9333,0.9391,0.943,0.9456,0.9496,0.956,0.9599,0.9665,0.9719,0.9824,0.9862,0.9925,0.9927,0.9974,0.9937,0.9931,0.993,0.9927,0.9933,0.9981,0.9982,0.9983,0.9983,0,0.925,0.9263,0.9318,0.938,0.9426,0.9475,0.9524,0.9553,0.9588,0.9633,0.97,0.9742,0.9825,0.9891,0.9957,0.9989,0.9993,0.9995,1.0009,1.0005,0.9993,1.0002,0.9865,0.9991,0.9991,0.999,0.999,0.9989,0.9317,0.9362,0.9414,0.9476,0.9515,0.9561,0.9608,0.9641,0.9697,0.9767,0.9779,0.9851,0.9904,0.9992,1.0027,1.0084,1.0074,1.0094,1.01,1.0105,1.0108,0.9983,1.0096,1.0096,1.0096,1.0096,1.0096,0,0.9416,0.945,0.9507,0.9575,0.9624,0.9623,0.9678,0.9719,0.9782,0.9831,0.9885,0.9963,1.0028,1.0071,1.0137,1.0175,1.0179,1.0192,1.019,1.0197,1.0113,1.0095,1.0188,1.0188,1.0188,1.0188,1.0188,1.0188,0.9473,0.955,0.957,0.9667,0.9701,0.9772,0.9803,0.9846,0.9885,0.9972,1.0026,1.0054,1.0102,1.0172,1.0231,1.0243,1.0267,1.0281,1.0292,1.0213,1.0203,1.0194,1.0177,1.0286,1.0286,1.0372,1.0373,1.0373]},{"header":{"parameterUnit":"m.s-1","parameterCategory":1,"la1":30.2991,"la2":30.254,"lo1":-89.0895,"lo2":-89.0444,"dy":0.0017,"dx":0.0017,"nx":28,"ny":28,"refTime":"2024-03-16T03:00:00:Z","depth":0,"parameterNumber":3,"parameterNumberName":"V-component_of_WINDS"},"data":[0,0,0,0,0,0,0,0,0,0,0,0,0,0,0,0,0,0,0,0,0,0,0,0,0,0,0,0,0,0,0,0,0,0,0,0,0,0,0,0,0,0,0,0,0,0,0,0,0,0,0,0,0,0,0,0,0,0,-3.9606,-3.9609,0,-3.9833,-3.9835,-3.9838,-3.9878,-3.9876,-3.9874,-3.9872,-4.01,-4.0107,-4.0115,0,0,0,0,0,0,0,0,0,0,0,0,0,-3.9205,-3.9212,-3.9606,-3.9609,-3.9612,-3.9832,-3.9835,-3.9838,-3.9878,-3.9876,-3.9874,-3.9872,-4.0097,-4.0106,-4.0116,0,0,0,0,0,0,0,0,0,0,0,0,0,-3.94,-3.9215,-3.9606,-3.9658,-3.9665,-3.9832,-3.9835,-3.9839,-3.9879,-3.9876,-3.9873,-3.987,-4.0094,-4.0105,-4.0117,-4.0245,0,0,-4.0153,-4.0158,0,0,0,0,0,0,0,0,-3.9389,-3.9415,-3.9648,-3.9655,-3.9663,-3.9824,-3.9777,-3.9975,-3.9879,-3.9798,-3.9872,-3.9869,-4.001,-4.0028,-4.0077,-4.0256,-4.0266,-4.0154,-4.0161,-4.0166,-4.0169,0,0,0,0,0,0,0,-3.9375,-3.9405,-3.9696,-3.9651,-3.9661,-3.967,-3.9694,-3.9815,-3.9917,-3.9804,-3.9808,-3.9834,-4.0014,-4.0066,-4.0083,-4.0269,-4.0153,-4.0164,-4.0171,-4.0176,-4.0566,-4.0569,0,0,0,0,0,0,-3.9353,-3.9394,-3.9688,-3.9702,-3.9516,-3.9679,-3.9707,-3.9775,-3.9915,-3.9934,-3.9837,-3.9835,-4.0047,-4.0069,-4.0091,-4.0251,-4.0166,-4.0177,-4.0183,-4.0562,-4.0566,-4.057,0,0,0,0,0,0,-3.9344,-3.9379,-3.9679,-3.9549,-3.9588,-3.9689,-3.9766,-3.9781,-3.9833,-3.994,-3.9958,-3.9871,-4.0046,-4.0074,-4.0207,-4.0259,-4.0182,-4.0193,-4.0558,-4.0564,-4.0568,-4.0572,0,0,0,0,0,0,-3.9333,-3.9375,-3.9426,-3.955,-3.9595,-3.9793,-3.9769,-3.9788,-3.9854,-3.9855,-3.9977,-3.9995,-4.0046,-4.0189,-4.0219,-4.0274,-4.0202,-4.0554,-4.0561,-4.0567,-4.0568,-4.0577,-4.0584,0,0,0,0,0,-3.9318,-3.9417,-3.9428,-3.9464,-3.966,-3.9796,-3.9821,-3.988,-3.9858,-3.9909,-3.9978,-3.9991,-4.0249,-4.0203,-4.0236,-4.0296,-4.0551,-4.0559,-4.0566,-4.0564,-4.0575,-4.0584,0,0,0,0,0,0,-3.9294,-3.9434,-3.9448,-3.959,-3.9681,-3.9802,-3.9869,-3.9889,-3.9987,-3.9983,-4.0049,-4.0077,-4.0206,-4.0264,-4.021,-4.0428,-4.0398,-4.0413,-4.0385,-4.0397,-4.0405,-4.0388,-4.0211,0,0,0,0,0,-3.9306,-3.9405,-3.9521,-3.9635,-3.9681,-3.9767,-3.9828,-3.9865,-3.9961,-3.9999,-4.0078,-4.0169,-4.0272,-4.0337,-4.0437,-4.0576,-4.0604,-4.0634,-4.0642,-4.0648,-4.066,-4.0739,-4.0754,-4.0595,-4.0595,-4.0595,0,0,-3.933,-3.9418,-3.9477,-3.9633,-3.9708,-3.9809,-3.9799,-3.9905,-3.9981,-4.0015,-4.0146,-4.0207,-4.0314,-4.0451,-4.0515,-4.0503,-4.071,-4.0658,-4.0662,-4.0671,-4.0748,-4.0763,-4.0777,-4.06,-4.0599,-4.0598,0,0,-3.9426,-3.9503,-3.9607,-3.9683,-3.9797,-3.9854,-3.9879,-3.9998,-4.004,-4.0173,-4.0201,-4.0291,-4.0465,-4.0541,-4.0602,-4.0728,-4.0744,-4.0759,-4.0801,-4.0878,-4.089,-4.0902,-4.0947,-4.0963,-4.077,-4.077,-4.077,0,-3.9441,-3.9595,-3.9657,-3.9764,-3.9832,-3.987,-3.9975,-4.0045,-4.0185,-4.0231,-4.0216,-4.0437,-4.0511,-4.0667,-4.0698,-4.0746,-4.0776,-4.0745,-4.0884,-4.0896,-4.0907,-4.0952,-4.0969,-4.0771,-4.0771,-4.0771,-4.0771,0,-3.9609,-3.9716,-3.9786,-3.9923,-3.9998,-4.0104,-4.0181,-4.025,-4.0281,-4.0339,-4.0474,-4.0565,-4.0684,-4.0724,-4.0754,-4.0885,-4.0874,-4.0871,-4.0842,-4.0923,-4.0966,-4.0983,-4.0773,-4.0772,-4.0772,-4.0772,0,0,-3.9695,-3.9866,-3.9891,-3.9954,-4.0084,-4.0167,-4.0274,-4.0393,-4.0451,-4.0546,-4.0638,-4.0785,-4.0784,-4.0853,-4.0892,-4.0959,-4.1054,-4.0948,-4.0951,-4.0965,-4.1204,-4.1206,-4.1225,-4.1065,-4.1069,-4.1072,-4.1195,0,-3.9806,-4.0001,-4.006,-4.0223,-4.0322,-4.036,-4.0454,-4.0543,-4.06,-4.0692,-4.0755,-4.0859,-4.0849,-4.0891,-4.0959,-4.1028,-4.1103,-4.102,-4.1151,-4.1154,-4.1123,-4.1247,-4.1249,-4.1362,-4.1212,-4.1215,-4.1217,0,-3.9963,-4.0063,-4.0236,-4.0355,-4.0399,-4.0482,-4.0596,-4.0684,-4.0785,-4.0823,-4.0901,-4.0935,-4.1048,-4.1014,-4.117,-4.1112,-4.1169,-4.1211,-4.1217,-4.1231,-4.1191,-4.1265,-4.1399,-4.1416,-4.1244,-4.1242,-4.124,0,-4.0009,-4.0187,-4.0314,-4.0367,-4.0508,-4.0566,-4.0627,-4.0726,-4.0794,-4.0894,-4.0939,-4.1049,-4.1109,-4.1193,-4.1256,-4.1225,-4.1407,-4.1378,-4.1441,-4.144,-4.1477,-4.1474,-4.1623,-4.1514,-4.1513,-4.1513,-4.1513,0,-4.0127,-4.0231,-4.0337,-4.0415,-4.0533,-4.0601,-4.0715,-4.0778,-4.0866,-4.0957,-4.0996,-4.1079,-4.1157,-4.1251,-4.13,-4.1423,-4.1449,-4.1482,-4.1494,-4.1479,-4.1475,-4.1517,-4.1511,-4.1517,-4.1516,-4.1516,-4.1515,0,-4.0198,-4.0274,-4.0415,-4.0538,-4.0571,-4.0653,-4.0757,-4.0834,-4.0894,-4.1008,-4.1038,-4.1132,-4.1244,-4.1316,-4.1458,-4.1492,-4.1626,-4.1635,-4.1592,-4.1598,-4.1657,-4.1651,-4.1838,-4.1866,-4.1738,-4.1739,-4.174,0,-4.0269,-4.0351,-4.0483,-4.0548,-4.061,-4.0713,-4.0783,-4.0852,-4.0924,-4.1047,-4.1109,-4.1225,-4.1321,-4.1499,-4.1579,-4.1689,-4.1701,-4.1759,-4.1717,-4.17,-4.1703,-4.1697,-4.1706,-4.1766,-4.1767,-4.1768,-4.1768,0,-4.0387,-4.0421,-4.0521,-4.0636,-4.0719,-4.0812,-4.0905,-4.0955,-4.104,-4.1118,-4.1235,-4.131,-4.1457,-4.1572,-4.1689,-4.175,-4.1774,-4.1781,-4.1802,-4.1787,-4.1759,-4.1776,-4.1611,-4.1776,-4.1775,-4.1775,-4.1774,-4.1774,-4.0461,-4.0536,-4.0641,-4.0753,-4.083,-4.0916,-4.0995,-4.1066,-4.1165,-4.1292,-4.1326,-4.1448,-4.1549,-4.1709,-4.1774,-4.187,-4.1862,-4.1891,-4.1899,-4.1905,-4.1907,-4.1744,-4.1891,-4.1891,-4.1891,-4.1891,-4.1891,0,-4.0581,-4.0652,-4.0753,-4.0883,-4.0971,-4.0987,-4.1091,-4.1163,-4.1271,-4.1363,-4.1458,-4.1593,-4.1705,-4.1794,-4.1909,-4.1968,-4.1982,-4.1996,-4.1992,-4.2006,-4.1907,-4.1878,-4.1983,-4.1983,-4.1983,-4.1983,-4.1983,-4.1983,-4.0654,-4.0782,-4.0829,-4.0995,-4.1065,-4.1187,-4.1245,-4.1324,-4.1399,-4.1548,-4.1642,-4.17,-4.1792,-4.1914,-4.2017,-4.204,-4.2081,-4.2093,-4.2118,-4.2023,-4.2013,-4.2003,-4.1977,-4.2101,-4.2101,-4.2211,-4.2211,-4.2212]}]]